When you browse on this site, cookies collect data to enhance your experience and personalize the content and advertising you see.
Visit our Privacy Policy to learn more. By continuing to use the site, you agree to this use of cookies and data.
  • In Switzerland
  • List of Countries
  • For 7 days
  • Water Temperature
  • Satellite Maps
  • Weather Map
  • Weather Widgets
  • user-avatar
    Login

    Hourly Weather Idzhewan

    Today, 21 July, Sunday

    Time Temperature Precipitation Wind Pressure Humidity
    00:00 +23°C° 0 mm 1 mps 695 mmHg 73%
    01:00 +23°C° 0 mm 1 mps 695 mmHg 74%
    02:00 +22°C° 0 mm 1 mps 694 mmHg 75%
    03:00 +22°C° 0 mm 1 mps 694 mmHg 76%
    04:00 +22°C° 0 mm 1 mps 694 mmHg 76%
    05:00 +23°C° 0 mm 1 mps 695 mmHg 76%
    06:00 +23°C° 0 mm 1 mps 695 mmHg 76%
    07:00 +25°C° 0 mm 1 mps 695 mmHg 71%
    08:00 +26°C° 0 mm 1 mps 694 mmHg 66%
    09:00 +28°C° 0 mm 2 mps 694 mmHg 62%
    10:00 +29°C° 0 mm 2 mps 694 mmHg 59%
    11:00 +30°C° 0 mm 2 mps 694 mmHg 57%
    12:00 +31°C° 0 mm 3 mps 694 mmHg 55%
    13:00 +31°C° 0 mm 3 mps 694 mmHg 53%
    14:00 +33°C° 0 mm 3 mps 693 mmHg 52%
    15:00 +33°C° 0 mm 3 mps 692 mmHg 50%
    16:00 +33°C° 0 mm 3 mps 692 mmHg 53%
    17:00 +31°C° 0 mm 2 mps 693 mmHg 55%
    18:00 +31°C° 0 mm 2 mps 693 mmHg 58%
    19:00 +29°C° 0 mm 2 mps 693 mmHg 60%
    20:00 +27°C° 0 mm 1 mps 692 mmHg 62%
    21:00 +26°C° 0 mm 1 mps 692 mmHg 64%
    22:00 +26°C° 0 mm 1 mps 692 mmHg 64%
    23:00 +25°C° 0 mm 1 mps 693 mmHg 64%

    Tomorrow, 22 July, Monday

    Time Temperature Precipitation Wind Pressure Humidity
    00:00 +25°C° 0 mm 1 mps 693 mmHg 64%
    01:00 +24°C° 0 mm 1 mps 692 mmHg 67%
    02:00 +24°C° 0 mm 1 mps 692 mmHg 70%
    03:00 +23°C° 0 mm 1 mps 692 mmHg 73%
    04:00 +23°C° 0 mm 1 mps 692 mmHg 73%
    05:00 +24°C° 0 mm 1 mps 692 mmHg 73%
    06:00 +24°C° 0 mm 1 mps 692 mmHg 73%
    07:00 +26°C° 0 mm 1 mps 692 mmHg 68%
    08:00 +28°C° 0 mm 1 mps 692 mmHg 63%
    09:00 +29°C° 0 mm 2 mps 692 mmHg 59%
    10:00 +30°C° 0 mm 2 mps 691 mmHg 57%
    11:00 +31°C° 0 mm 2 mps 691 mmHg 56%
    12:00 +32°C° 0 mm 2 mps 691 mmHg 54%
    13:00 +34°C° 0 mm 2 mps 691 mmHg 54%
    14:00 +34°C° 0 mm 3 mps 690 mmHg 53%
    15:00 +34°C° 0 mm 3 mps 690 mmHg 53%
    16:00 +34°C° 0 mm 3 mps 690 mmHg 56%
    17:00 +32°C° 0 mm 2 mps 690 mmHg 59%
    18:00 +31°C° 0 mm 2 mps 690 mmHg 62%
    19:00 +30°C° 0 mm 2 mps 690 mmHg 65%
    20:00 +28°C° 0 mm 1 mps 690 mmHg 68%
    21:00 +26°C° 0 mm 1 mps 690 mmHg 71%
    22:00 +25°C° 0 mm 1 mps 690 mmHg 75%
    23:00 +24°C° 0 mm 1 mps 690 mmHg 80%

    Day after tomorrow, 23 July, Tuesday

    Time Temperature Precipitation Wind Pressure Humidity
    00:00 +23°C° 0 mm 1 mps 690 mmHg 84%
    01:00 +23°C° 0 mm 1 mps 690 mmHg 87%
    02:00 +22°C° 0 mm 1 mps 690 mmHg 89%
    03:00 +22°C° 0 mm 1 mps 690 mmHg 92%
    04:00 +22°C° 0 mm 1 mps 690 mmHg 91%
    05:00 +23°C° 0 mm 1 mps 690 mmHg 89%
    06:00 +23°C° 0 mm 1 mps 691 mmHg 88%
    07:00 +24°C° 0 mm 1 mps 691 mmHg 84%
    08:00 +25°C° 0 mm 1 mps 690 mmHg 80%
    09:00 +25°C° 0 mm 1 mps 690 mmHg 76%
    10:00 +26°C° 0 mm 1 mps 690 mmHg 73%
    11:00 +27°C° 0 mm 2 mps 690 mmHg 70%
    12:00 +28°C° 0 mm 2 mps 690 mmHg 67%
    13:00 +29°C° 0 mm 1 mps 690 mmHg 66%
    14:00 +29°C° 0 mm 1 mps 689 mmHg 65%
    15:00 +30°C° 0 mm 1 mps 689 mmHg 64%
    16:00 +30°C° 0 mm 1 mps 689 mmHg 65%
    17:00 +29°C° 0 mm 1 mps 689 mmHg 67%
    18:00 +29°C° 0 mm 1 mps 689 mmHg 68%
    19:00 +28°C° 0 mm 1 mps 689 mmHg 70%
    20:00 +25°C° 0 mm 0 mps 690 mmHg 72%
    21:00 +24°C° 0 mm 0 mps 690 mmHg 74%
    22:00 +23°C° 0 mm 0 mps 690 mmHg 76%
    23:00 +22°C° 0 mm 0 mps 690 mmHg 79%

    24 July, Wednesday

    Time Temperature Precipitation Wind Pressure Humidity
    00:00 +21°C° 0 mm 0 mps 690 mmHg 82%
    01:00 +21°C° 0 mm 0 mps 690 mmHg 84%
    02:00 +20°C° 0 mm 0 mps 689 mmHg 86%
    03:00 +22°C° 0 mm 1 mps 689 mmHg 88%
    04:00 +22°C° 0 mm 1 mps 689 mmHg 87%
    05:00 +23°C° 0 mm 1 mps 690 mmHg 86%
    06:00 +23°C° 0 mm 1 mps 690 mmHg 85%
    07:00 +25°C° 0 mm 1 mps 690 mmHg 80%
    08:00 +26°C° 0 mm 1 mps 690 mmHg 74%
    09:00 +28°C° 0 mm 2 mps 690 mmHg 69%
    10:00 +28°C° 0.1 mm 2 mps 690 mmHg 67%
    11:00 +29°C° 0.1 mm 2 mps 690 mmHg 66%
    12:00 +29°C° 0.1 mm 2 mps 689 mmHg 64%
    13:00 +30°C° 0.2 mm 2 mps 689 mmHg 61%
    14:00 +31°C° 0.2 mm 2 mps 689 mmHg 58%
    15:00 +32°C° 0.2 mm 2 mps 689 mmHg 54%
    16:00 +31°C° 0.2 mm 2 mps 689 mmHg 57%
    17:00 +31°C° 0.2 mm 2 mps 689 mmHg 59%
    18:00 +30°C° 0.2 mm 2 mps 689 mmHg 61%
    19:00 +28°C° 0 mm 2 mps 689 mmHg 66%
    20:00 +26°C° 0 mm 1 mps 689 mmHg 71%
    21:00 +24°C° 0 mm 1 mps 689 mmHg 76%
    22:00 +24°C° 0 mm 1 mps 689 mmHg 77%
    23:00 +23°C° 0 mm 1 mps 690 mmHg 79%

    25 July, Thursday

    Time Temperature Precipitation Wind Pressure Humidity
    00:00 +22°C° 0 mm 1 mps 690 mmHg 81%
    01:00 +22°C° 0.1 mm 1 mps 690 mmHg 83%
    02:00 +20°C° 0.1 mm 0 mps 689 mmHg 84%
    03:00 +19°C° 0.1 mm 0 mps 689 mmHg 86%
    04:00 +20°C° 0 mm 0 mps 689 mmHg 86%
    05:00 +22°C° 0 mm 1 mps 690 mmHg 86%
    06:00 +23°C° 0 mm 1 mps 690 mmHg 86%
    07:00 +25°C° 0 mm 1 mps 690 mmHg 80%
    08:00 +26°C° 0 mm 1 mps 690 mmHg 74%
    09:00 +28°C° 0 mm 2 mps 690 mmHg 68%
    10:00 +29°C° 0.1 mm 2 mps 690 mmHg 65%
    11:00 +30°C° 0.1 mm 2 mps 690 mmHg 61%
    12:00 +31°C° 0.1 mm 3 mps 689 mmHg 58%
    13:00 +33°C° 0.5 mm 3 mps 689 mmHg 56%
    14:00 +33°C° 0.5 mm 3 mps 688 mmHg 55%
    15:00 +33°C° 0.5 mm 3 mps 688 mmHg 53%
    16:00 +31°C° 0.1 mm 3 mps 688 mmHg 56%
    17:00 +30°C° 0.1 mm 3 mps 687 mmHg 59%
    18:00 +29°C° 0.1 mm 3 mps 687 mmHg 62%
    19:00 +27°C° 0.2 mm 2 mps 688 mmHg 70%
    20:00 +24°C° 0.2 mm 2 mps 688 mmHg 78%
    21:00 +22°C° 0.2 mm 1 mps 688 mmHg 86%
    22:00 +22°C° 0.5 mm 1 mps 688 mmHg 87%
    23:00 +22°C° 0.5 mm 1 mps 688 mmHg 89%

    26 July, Friday

    Time Temperature Precipitation Wind Pressure Humidity
    00:00 +22°C° 0.5 mm 1 mps 689 mmHg 91%
    01:00 +21°C° 0.1 mm 1 mps 689 mmHg 91%
    02:00 +21°C° 0.1 mm 1 mps 689 mmHg 91%
    03:00 +21°C° 0.1 mm 1 mps 689 mmHg 92%
    04:00 +21°C° 0 mm 1 mps 689 mmHg 89%
    05:00 +21°C° 0 mm 1 mps 689 mmHg 87%
    06:00 +21°C° 0 mm 1 mps 689 mmHg 85%
    07:00 +23°C° 0 mm 1 mps 689 mmHg 76%
    08:00 +24°C° 0 mm 2 mps 689 mmHg 68%
    09:00 +25°C° 0 mm 2 mps 689 mmHg 60%
    10:00 +26°C° 0 mm 2 mps 689 mmHg 57%
    11:00 +27°C° 0 mm 2 mps 689 mmHg 53%
    12:00 +28°C° 0 mm 3 mps 689 mmHg 50%
    13:00 +28°C° 0.1 mm 3 mps 688 mmHg 50%
    14:00 +29°C° 0.1 mm 3 mps 688 mmHg 50%
    15:00 +29°C° 0.1 mm 3 mps 688 mmHg 50%
    16:00 +28°C° 0 mm 3 mps 688 mmHg 53%
    17:00 +27°C° 0 mm 3 mps 688 mmHg 56%
    18:00 +26°C° 0 mm 3 mps 688 mmHg 59%
    19:00 +24°C° 0 mm 2 mps 688 mmHg 62%
    20:00 +21°C° 0 mm 2 mps 689 mmHg 66%
    21:00 +21°C° 0 mm 1 mps 689 mmHg 69%
    22:00 +20°C° 0 mm 1 mps 689 mmHg 70%
    23:00 +20°C° 0 mm 1 mps 689 mmHg 72%
    Show more